Location: San Vito
(41.8833°N, 12.9833°E)
Time: 01:10:32
(UTC+00:00)

STARLINK-24 - Pass Details

Date: 17 November 2019
Orbit: 529 x 531 km, 53.0° (Epoch: 06 December)

Event Time Altitude Azimuth Distance (km) Brightness Sun altitude
Exits shadow 03:52:26 29° 177° (S) 982 4.9 -23.6°
Drops below altitude 10° 03:57:32 10° 66° (ENE) 1,787 7.0 -22.6°
Enters shadow 04:59:12 -62° 236° (SW) 11,868 10.3 -11.4°
Maximum altitude 05:33:57 37° 333° (NNW) 842 4.2 -5.2°
